• In Hungary
  • List of Countries
  • For 7 days
  • Water Temperature
  • Satellite Maps
  • Weather Map
  • News
  • Weather Widgets
  • user-avatar
    Login

    Hourly Weather Izi Shurga

    Today, 16 July, Monday

    Time Temperature Precipitation Wind Pressure Humidity
    00:00 +19°C° 0 mm 2 mps 743 mmHg 94%
    01:00 +19°C° 0 mm 2 mps 743 mmHg 94%
    02:00 +19°C° 0 mm 2 mps 743 mmHg 95%
    03:00 +18°C° 0 mm 2 mps 743 mmHg 96%
    04:00 +19°C° 0 mm 2 mps 743 mmHg 94%
    05:00 +20°C° 0 mm 2 mps 744 mmHg 93%
    06:00 +21°C° 0 mm 2 mps 744 mmHg 91%
    07:00 +23°C° 0.5 mm 2 mps 744 mmHg 87%
    08:00 +24°C° 0.5 mm 3 mps 744 mmHg 82%
    09:00 +26°C° 0.5 mm 3 mps 744 mmHg 78%
    10:00 +27°C° 0.6 mm 3 mps 744 mmHg 74%
    11:00 +27°C° 0.6 mm 3 mps 743 mmHg 70%
    12:00 +28°C° 0.6 mm 3 mps 743 mmHg 66%
    13:00 +28°C° 0.4 mm 3 mps 743 mmHg 67%
    14:00 +28°C° 0.4 mm 4 mps 743 mmHg 67%
    15:00 +28°C° 0.4 mm 4 mps 743 mmHg 67%
    16:00 +28°C° 0.1 mm 4 mps 743 mmHg 71%
    17:00 +27°C° 0.1 mm 3 mps 743 mmHg 74%
    18:00 +27°C° 0.1 mm 3 mps 743 mmHg 77%
    19:00 +25°C° 0 mm 3 mps 743 mmHg 82%
    20:00 +24°C° 0 mm 3 mps 743 mmHg 88%
    21:00 +21°C° 0 mm 3 mps 743 mmHg 93%
    22:00 +21°C° 0 mm 3 mps 743 mmHg 94%
    23:00 +20°C° 0 mm 3 mps 743 mmHg 95%

    Tomorrow, 17 July, Tuesday

    Time Temperature Precipitation Wind Pressure Humidity
    00:00 +20°C° 0 mm 3 mps 743 mmHg 96%
    01:00 +20°C° 0 mm 3 mps 743 mmHg 96%
    02:00 +19°C° 0 mm 3 mps 743 mmHg 96%
    03:00 +19°C° 0 mm 3 mps 743 mmHg 96%
    04:00 +20°C° 0 mm 3 mps 743 mmHg 92%
    05:00 +20°C° 0 mm 3 mps 743 mmHg 88%
    06:00 +21°C° 0 mm 4 mps 743 mmHg 85%
    07:00 +23°C° 0 mm 4 mps 743 mmHg 78%
    08:00 +25°C° 0 mm 4 mps 743 mmHg 72%
    09:00 +27°C° 0 mm 4 mps 743 mmHg 66%
    10:00 +28°C° 0 mm 5 mps 743 mmHg 63%
    11:00 +28°C° 0 mm 5 mps 743 mmHg 60%
    12:00 +29°C° 0 mm 5 mps 742 mmHg 56%
    13:00 +29°C° 0.1 mm 5 mps 742 mmHg 59%
    14:00 +28°C° 0.1 mm 5 mps 742 mmHg 61%
    15:00 +28°C° 0.1 mm 5 mps 742 mmHg 63%
    16:00 +27°C° 0.1 mm 4 mps 742 mmHg 67%
    17:00 +26°C° 0.1 mm 4 mps 742 mmHg 72%
    18:00 +25°C° 0.1 mm 3 mps 742 mmHg 77%
    19:00 +23°C° 0 mm 4 mps 742 mmHg 79%
    20:00 +22°C° 0 mm 4 mps 741 mmHg 82%
    21:00 +21°C° 0 mm 4 mps 741 mmHg 84%
    22:00 +21°C° 0.3 mm 4 mps 741 mmHg 86%
    23:00 +21°C° 0.3 mm 4 mps 741 mmHg 87%

    Day after tomorrow, 18 July, Wednesday

    Time Temperature Precipitation Wind Pressure Humidity
    00:00 +21°C° 0.3 mm 5 mps 740 mmHg 88%
    01:00 +21°C° 1.2 mm 5 mps 740 mmHg 91%
    02:00 +20°C° 1.2 mm 5 mps 740 mmHg 93%
    03:00 +20°C° 1.2 mm 5 mps 740 mmHg 95%
    04:00 +20°C° 2.1 mm 5 mps 740 mmHg 96%
    05:00 +20°C° 2.1 mm 5 mps 740 mmHg 96%
    06:00 +20°C° 2.1 mm 5 mps 740 mmHg 96%
    07:00 +20°C° 0.6 mm 5 mps 740 mmHg 96%
    08:00 +20°C° 0.6 mm 5 mps 740 mmHg 95%
    09:00 +20°C° 0.6 mm 5 mps 740 mmHg 95%
    10:00 +21°C° 0.1 mm 4 mps 740 mmHg 94%
    11:00 +21°C° 0.1 mm 4 mps 741 mmHg 93%
    12:00 +22°C° 0.1 mm 4 mps 741 mmHg 92%
    13:00 +23°C° 0.3 mm 4 mps 741 mmHg 88%
    14:00 +25°C° 0.3 mm 4 mps 741 mmHg 84%
    15:00 +26°C° 0.3 mm 3 mps 741 mmHg 80%
    16:00 +25°C° 1.2 mm 3 mps 741 mmHg 82%
    17:00 +25°C° 1.2 mm 3 mps 742 mmHg 85%
    18:00 +25°C° 1.2 mm 3 mps 742 mmHg 88%
    19:00 +24°C° 0.6 mm 3 mps 742 mmHg 90%
    20:00 +23°C° 0.6 mm 2 mps 742 mmHg 92%
    21:00 +21°C° 0.6 mm 2 mps 742 mmHg 94%
    22:00 +20°C° 0.7 mm 2 mps 742 mmHg 94%
    23:00 +20°C° 0.7 mm 2 mps 742 mmHg 95%

    19 July, Thursday

    Time Temperature Precipitation Wind Pressure Humidity
    00:00 +20°C° 0.7 mm 2 mps 742 mmHg 96%
    01:00 +19°C° 0.2 mm 2 mps 743 mmHg 96%
    02:00 +19°C° 0.2 mm 2 mps 743 mmHg 96%
    03:00 +20°C° 0.2 mm 1 mps 743 mmHg 96%
    04:00 +21°C° 0.2 mm 1 mps 743 mmHg 95%
    05:00 +21°C° 0.2 mm 1 mps 743 mmHg 94%
    06:00 +22°C° 0.2 mm 1 mps 744 mmHg 93%
    07:00 +23°C° 0.9 mm 1 mps 744 mmHg 90%
    08:00 +24°C° 0.9 mm 1 mps 744 mmHg 86%
    09:00 +25°C° 0.9 mm 2 mps 744 mmHg 82%
    10:00 +26°C° 0.8 mm 1 mps 744 mmHg 78%
    11:00 +27°C° 0.8 mm 1 mps 744 mmHg 74%
    12:00 +27°C° 0.8 mm 1 mps 744 mmHg 70%
    13:00 +28°C° 0 mm 1 mps 744 mmHg 66%
    14:00 +29°C° 0 mm 1 mps 744 mmHg 62%
    15:00 +29°C° 0 mm 1 mps 744 mmHg 58%
    16:00 +29°C° 0.2 mm 1 mps 744 mmHg 63%
    17:00 +28°C° 0.2 mm 1 mps 744 mmHg 67%
    18:00 +28°C° 0.2 mm 1 mps 745 mmHg 72%
    19:00 +26°C° 0.1 mm 1 mps 745 mmHg 77%
    20:00 +24°C° 0.1 mm 1 mps 745 mmHg 83%
    21:00 +22°C° 0.1 mm 1 mps 745 mmHg 88%
    22:00 +22°C° 0.1 mm 1 mps 745 mmHg 90%
    23:00 +20°C° 0.1 mm 2 mps 745 mmHg 92%

    20 July, Friday

    Time Temperature Precipitation Wind Pressure Humidity
    00:00 +20°C° 0.1 mm 2 mps 745 mmHg 94%
    01:00 +21°C° 0.3 mm 1 mps 745 mmHg 94%
    02:00 +20°C° 0.3 mm 1 mps 745 mmHg 95%
    03:00 +20°C° 0.3 mm 1 mps 745 mmHg 95%
    04:00 +21°C° 0.1 mm 1 mps 745 mmHg 94%
    05:00 +22°C° 0.1 mm 1 mps 745 mmHg 93%
    06:00 +21°C° 0.1 mm 2 mps 745 mmHg 93%
    07:00 +24°C° 0.5 mm 2 mps 745 mmHg 88%
    08:00 +25°C° 0.5 mm 2 mps 745 mmHg 84%
    09:00 +26°C° 0.5 mm 2 mps 745 mmHg 80%
    10:00 +27°C° 0.5 mm 2 mps 745 mmHg 77%
    11:00 +27°C° 0.5 mm 2 mps 746 mmHg 74%
    12:00 +28°C° 0.5 mm 2 mps 746 mmHg 71%
    13:00 +27°C° 0.8 mm 2 mps 745 mmHg 73%
    14:00 +27°C° 0.8 mm 2 mps 745 mmHg 76%
    15:00 +27°C° 0.8 mm 2 mps 745 mmHg 78%
    16:00 +26°C° 0.2 mm 2 mps 745 mmHg 80%
    17:00 +26°C° 0.2 mm 2 mps 745 mmHg 83%
    18:00 +25°C° 0.2 mm 2 mps 745 mmHg 86%
    19:00 +24°C° 0.4 mm 2 mps 745 mmHg 89%
    20:00 +23°C° 0.4 mm 2 mps 745 mmHg 93%
    21:00 +20°C° 0.4 mm 2 mps 745 mmHg 96%
    22:00 +20°C° 0.1 mm 2 mps 745 mmHg 96%
    23:00 +20°C° 0.1 mm 2 mps 745 mmHg 97%

    21 July, Saturday

    Time Temperature Precipitation Wind Pressure Humidity
    00:00 +19°C° 0.1 mm 2 mps 744 mmHg 97%
    01:00 +19°C° 0 mm 2 mps 744 mmHg 97%
    02:00 +19°C° 0 mm 2 mps 744 mmHg 97%
    03:00 +19°C° 0 mm 3 mps 744 mmHg 97%
    04:00 +19°C° 0 mm 3 mps 744 mmHg 95%
    05:00 +20°C° 0 mm 3 mps 745 mmHg 94%
    06:00 +20°C° 0 mm 4 mps 745 mmHg 92%
    07:00 +21°C° 0 mm 4 mps 745 mmHg 86%
    08:00 +23°C° 0 mm 5 mps 745 mmHg 81%
    09:00 +25°C° 0 mm 5 mps 745 mmHg 76%
    10:00 +26°C° 0 mm 5 mps 745 mmHg 71%
    11:00 +27°C° 0 mm 6 mps 745 mmHg 67%
    12:00 +27°C° 0 mm 6 mps 745 mmHg 63%
    13:00 +27°C° 0.2 mm 6 mps 745 mmHg 62%
    14:00 +27°C° 0.2 mm 6 mps 745 mmHg 62%
    15:00 +27°C° 0.2 mm 6 mps 745 mmHg 62%
    16:00 +27°C° 0.2 mm 5 mps 746 mmHg 65%
    17:00 +26°C° 0.2 mm 5 mps 746 mmHg 68%
    18:00 +25°C° 0.2 mm 4 mps 746 mmHg 71%
    19:00 +23°C° 0 mm 4 mps 746 mmHg 73%
    20:00 +22°C° 0 mm 4 mps 746 mmHg 75%
    21:00 +20°C° 0 mm 4 mps 746 mmHg 77%
    22:00 +20°C° 0 mm 4 mps 746 mmHg 77%
    23:00 +20°C° 0 mm 5 mps 746 mmHg 78%
    Show more